| time (UTC) | temp F | wind direction | speed MPH | gust MPH | rain 1hr in | rain 24hr in | rain mn in | humidity % | barometer mb |
| 20260509001517 | 56 | 238 | 2.0 | 8.0 | 0.00 | 0.13 | 0.04 | 79 | 1008.6 |
| 20260509000018 | 56 | 241 | 5.0 | 10.0 | 0.00 | 0.13 | 0.04 | 77 | 1008.7 |
| 20260508234509 | 57 | 263 | 6.0 | 9.0 | 0.00 | 0.13 | 0.04 | 75 | 1008.8 |
| 20260508233012 | 58 | 231 | 5.0 | 12.0 | 0.00 | 0.13 | 0.04 | 75 | 1008.8 |
| 20260508231519 | 58 | 253 | 5.0 | 10.0 | 0.00 | 0.13 | 0.04 | 73 | 1008.8 |
| 20260508230022 | 58 | 241 | 3.0 | 11.0 | 0.00 | 0.13 | 0.04 | 74 | 1008.8 |
| 20260508224519 | 56 | 236 | 5.0 | 15.0 | 0.00 | 0.13 | 0.04 | 76 | 1009.0 |
| 20260508223019 | 56 | 258 | 6.0 | 9.0 | 0.00 | 0.13 | 0.04 | 75 | 1009.1 |
| 20260508221528 | 56 | 271 | 5.0 | 12.0 | 0.00 | 0.13 | 0.04 | 76 | 1009.0 |
| 20260508220028 | 56 | 249 | 6.0 | 10.0 | 0.00 | 0.13 | 0.04 | 76 | 1009.0 |
| 20260508214523 | 56 | 214 | 6.0 | 13.0 | 0.00 | 0.13 | 0.04 | 76 | 1008.8 |
| 20260508213030 | 57 | 252 | 8.0 | 11.0 | 0.00 | 0.13 | 0.04 | 73 | 1009.0 |
| 20260508211515 | 59 | 170 | 3.0 | 7.0 | 0.00 | 0.13 | 0.04 | 71 | 1009.1 |
| 20260508210018 | 59 | 205 | 4.0 | 8.0 | 0.00 | 0.13 | 0.04 | 69 | 1009.2 |
| 20260508204523 | 59 | 227 | 4.0 | 7.0 | 0.00 | 0.13 | 0.04 | 69 | 1009.2 |
| 20260508203027 | 58 | 229 | 4.0 | 7.0 | 0.00 | 0.13 | 0.04 | 69 | 1009.3 |
| 20260508201524 | 57 | 224 | 2.0 | 7.0 | 0.00 | 0.13 | 0.04 | 71 | 1009.5 |
| 20260508200016 | 57 | 195 | 2.0 | 5.0 | 0.00 | 0.13 | 0.04 | 71 | 1009.7 |
| 20260508194523 | 57 | 260 | 2.0 | 4.0 | 0.00 | 0.13 | 0.04 | 71 | 1010.1 |
| 20260508193023 | 57 | 307 | 2.0 | 3.0 | 0.00 | 0.13 | 0.04 | 73 | 1010.4 |
| 20260508191530 | 57 | 285 | 1.0 | 5.0 | 0.00 | 0.13 | 0.04 | 73 | 1010.6 |
| 20260508190033 | 57 | 240 | 3.0 | 7.0 | 0.00 | 0.13 | 0.04 | 72 | 1010.6 |
| 20260508184518 | 58 | 250 | 4.0 | 7.0 | 0.00 | 0.13 | 0.04 | 73 | 1010.8 |
| 20260508183023 | 56 | 247 | 5.0 | 7.0 | 0.01 | 0.13 | 0.04 | 76 | 1011.2 |
| 20260508181543 | 55 | 207 | 5.0 | 9.0 | 0.01 | 0.13 | 0.04 | 81 | 1011.4 |
| 20260508180009 | 54 | 257 | 4.0 | 5.0 | 0.01 | 0.13 | 0.04 | 81 | 1011.6 |
| 20260508174518 | 53 | 209 | 2.0 | 6.0 | 0.01 | 0.13 | 0.04 | 81 | 1011.9 |
| 20260508173020 | 53 | 249 | 3.0 | 6.0 | 0.00 | 0.12 | 0.03 | 81 | 1012.2 |
| 20260508171503 | 53 | 214 | 4.0 | 6.0 | 0.01 | 0.12 | 0.03 | 80 | 1012.3 |
| 20260508170007 | 54 | 255 | 5.0 | 8.0 | 0.01 | 0.12 | 0.03 | 80 | 1012.4 |
| 20260508164520 | 54 | 258 | 5.0 | 8.0 | 0.01 | 0.12 | 0.03 | 80 | 1012.6 |
| 20260508163013 | 54 | 219 | 3.0 | 11.0 | 0.01 | 0.12 | 0.03 | 78 | 1012.5 |
| 20260508161522 | 55 | 223 | 5.0 | 8.0 | 0.00 | 0.11 | 0.02 | 79 | 1012.3 |
| 20260508160006 | 55 | 246 | 6.0 | 11.0 | 0.00 | 0.11 | 0.02 | 77 | 1012.5 |
| 20260508154511 | 54 | 235 | 5.0 | 11.0 | 0.00 | 0.11 | 0.02 | 81 | 1012.7 |
| 20260508153012 | 52 | 220 | 4.0 | 8.0 | 0.01 | 0.11 | 0.02 | 83 | 1012.7 |
| 20260508151520 | 51 | 269 | 3.0 | 6.0 | 0.01 | 0.11 | 0.02 | 83 | 1012.9 |
| 20260508150024 | 51 | 238 | 2.0 | 5.0 | 0.01 | 0.11 | 0.02 | 82 | 1013.0 |
| 20260508144504 | 51 | 281 | 3.0 | 5.0 | 0.01 | 0.11 | 0.02 | 80 | 1013.2 |
| 20260508143011 | 51 | 269 | 2.0 | 5.0 | 0.00 | 0.10 | 0.01 | 80 | 1013.2 |
| 20260508141515 | 51 | 250 | 4.0 | 8.0 | 0.00 | 0.10 | 0.01 | 79 | 1013.2 |
| 20260508140022 | 51 | 283 | 1.0 | 4.0 | 0.00 | 0.10 | 0.01 | 80 | 1013.1 |
| 20260508134524 | 50 | 258 | 2.0 | 6.0 | 0.00 | 0.10 | 0.01 | 80 | 1013.2 |
| 20260508133029 | 50 | 263 | 2.0 | 4.0 | 0.00 | 0.10 | 0.01 | 80 | 1012.9 |
| 20260508131513 | 49 | 243 | 3.0 | 6.0 | 0.00 | 0.10 | 0.01 | 81 | 1013.0 |
| 20260508130019 | 49 | 264 | 2.0 | 4.0 | 0.00 | 0.10 | 0.01 | 81 | 1013.0 |
| 20260508124520 | 48 | 267 | 3.0 | 5.0 | 0.00 | 0.10 | 0.01 | 81 | 1013.0 |
| 20260508123028 | 48 | 254 | 3.0 | 6.0 | 0.00 | 0.10 | 0.01 | 81 | 1013.0 |
| 20260508121530 | 48 | 301 | 2.0 | 4.0 | 0.00 | 0.10 | 0.01 | 82 | 1013.0 |
| 20260508120015 | 47 | 275 | 2.0 | 4.0 | 0.00 | 0.10 | 0.01 | 83 | 1012.9 |
| 20260508114521 | 46 | 297 | 1.0 | 3.0 | 0.00 | 0.10 | 0.01 | 84 | 1012.8 |
| 20260508113025 | 45 | 255 | 0.0 | 2.0 | 0.00 | 0.10 | 0.01 | 85 | 1012.6 |
| 20260508111535 | 44 | 276 | 0.0 | 2.0 | 0.00 | 0.10 | 0.01 | 84 | 1012.3 |
| 20260508110028 | 44 | 266 | 0.0 | 3.0 | 0.00 | 0.10 | 0.01 | 84 | 1012.4 |
| 20260508104517 | 44 | 250 | 1.0 | 3.0 | 0.00 | 0.10 | 0.01 | 84 | 1012.1 |
| 20260508103029 | 44 | 311 | 0.0 | 5.0 | 0.00 | 0.10 | 0.01 | 83 | 1012.1 |
| 20260508101534 | 45 | 259 | 1.0 | 5.0 | 0.00 | 0.10 | 0.01 | 83 | 1012.1 |
| 20260508100028 | 45 | 259 | 3.0 | 7.0 | 0.00 | 0.10 | 0.01 | 82 | 1012.1 |
| 20260508094529 | 45 | 252 | 2.0 | 9.0 | 0.00 | 0.10 | 0.01 | 82 | 1012.1 |
| 20260508093020 | 45 | 238 | 4.0 | 8.0 | 0.00 | 0.10 | 0.01 | 83 | 1012.2 |
| 20260508091524 | 45 | 251 | 4.0 | 8.0 | 0.00 | 0.10 | 0.01 | 83 | 1012.2 |
| 20260508090007 | 44 | 244 | 3.0 | 7.0 | 0.00 | 0.10 | 0.01 | 86 | 1012.3 |
| 20260508084508 | 43 | 237 | 2.0 | 3.0 | 0.00 | 0.10 | 0.01 | 87 | 1012.2 |
| 20260508083015 | 43 | 220 | 1.0 | 2.0 | 0.00 | 0.10 | 0.01 | 87 | 1012.2 |
| 20260508081520 | 43 | 285 | 0.0 | 2.0 | 0.00 | 0.10 | 0.01 | 87 | 1012.3 |
| 20260508080024 | 43 | 248 | 2.0 | 4.0 | 0.00 | 0.10 | 0.01 | 88 | 1012.3 |
| 20260508074504 | 42 | 208 | 0.0 | 2.0 | 0.00 | 0.10 | 0.01 | 88 | 1012.2 |
| 20260508073013 | 42 | 210 | 0.0 | 3.0 | 0.01 | 0.10 | 0.01 | 88 | 1012.3 |
| 20260508071521 | 43 | 212 | 0.0 | 1.0 | 0.01 | 0.10 | 0.01 | 88 | 1012.4 |
| 20260508070022 | 43 | 211 | 0.0 | 2.0 | 0.01 | 0.10 | 0.01 | 88 | 1012.5 |
| 20260508064536 | 43 | 207 | 1.0 | 3.0 | 0.01 | 0.10 | 0.01 | 88 | 1012.7 |
| 20260508063011 | 43 | 204 | 0.0 | 2.0 | 0.00 | 0.09 | 0.00 | 88 | 1012.8 |
| 20260508061517 | 43 | 231 | 1.0 | 2.0 | 0.00 | 0.09 | 0.00 | 88 | 1012.9 |
| 20260508060021 | 43 | 193 | 0.0 | 2.0 | 0.00 | 0.09 | 0.00 | 87 | 1012.9 |
| 20260508054521 | 44 | 168 | 1.0 | 3.0 | 0.00 | 0.09 | 0.00 | 87 | 1013.1 |
| 20260508053028 | 44 | 213 | 2.0 | 4.0 | 0.00 | 0.09 | 0.00 | 87 | 1013.1 |
| 20260508051510 | 44 | 168 | 0.0 | 2.0 | 0.00 | 0.09 | 0.00 | 86 | 1013.2 |
| 20260508050021 | 44 | 176 | 0.0 | 2.0 | 0.00 | 0.09 | 0.00 | 86 | 1013.2 |
| 20260508044522 | 45 | 176 | 0.0 | 2.0 | 0.01 | 0.09 | 0.00 | 85 | 1013.3 |
| 20260508043023 | 45 | 197 | 1.0 | 4.0 | 0.01 | 0.09 | 0.00 | 85 | 1013.3 |
| 20260508041526 | 46 | 200 | 3.0 | 7.0 | 0.01 | 0.09 | 0.00 | 85 | 1013.2 |
| 20260508040018 | 46 | 192 | 2.0 | 4.0 | 0.02 | 0.09 | 0.00 | 84 | 1013.4 |
| 20260508034516 | 46 | 217 | 2.0 | 8.0 | 0.04 | 0.08 | 0.08 | 83 | 1013.3 |
| 20260508033024 | 46 | 221 | 5.0 | 8.0 | 0.07 | 0.08 | 0.08 | 82 | 1013.2 |
| 20260508031529 | 46 | 198 | 5.0 | 11.0 | 0.08 | 0.08 | 0.08 | 82 | 1012.4 |
| 20260508030028 | 46 | 202 | 2.0 | 6.0 | 0.07 | 0.07 | 0.07 | 81 | 1013.9 |
| 20260508024514 | 47 | 297 | 1.0 | 3.0 | 0.04 | 0.04 | 0.04 | 80 | 1014.5 |
| 20260508023027 | 47 | 18 | 0.0 | 2.0 | 0.01 | 0.01 | 0.01 | 78 | 1014.0 |
| 20260508021523 | 46 | 155 | 0.0 | 0.0 | 0.00 | 0.00 | 0.00 | 75 | 1013.3 |
| 20260508020005 | 46 | 155 | 0.0 | 0.0 | 0.00 | 0.00 | 0.00 | 75 | 1013.2 |
| 20260508014518 | 45 | 155 | 0.0 | 2.0 | 0.00 | 0.00 | 0.00 | 76 | 1012.9 |
| 20260508013015 | 45 | 166 | 0.0 | 0.0 | 0.00 | 0.00 | 0.00 | 75 | 1012.9 |
| 20260508011521 | 46 | 166 | 0.0 | 0.0 | 0.00 | 0.00 | 0.00 | 74 | 1012.8 |
| 20260508010003 | 47 | 166 | 0.0 | 0.0 | 0.00 | 0.00 | 0.00 | 74 | 1012.8 |
| 20260508004515 | 48 | 166 | 0.0 | 0.0 | 0.00 | 0.00 | 0.00 | 73 | 1012.9 |
| 20260508003033 | 49 | 167 | 0.0 | 2.0 | 0.00 | 0.00 | 0.00 | 69 | 1012.9 |